Weather History for KGFK - December, 2012

Change the Weather History Date:

Thursday, December 20, 2012

  Actual Average Record
Temperature  
Mean Temperature 8 °F 10 °F  
Max Temperature 16 °F 19 °F 44 °F (1957)
Min Temperature 0 °F 1 °F -30 °F (1985)
Degree Days  
Heating Degree Days 57 55  
Month to date heating degree days 953 1038  
Since 1 July heating degree days 3081 3237  
Cooling Degree Days 0 0  
Month to date cooling degree days 0 0  
Year to date cooling degree days 572 379  
Moisture  
Dew Point 3 °F    
Average Humidity 82    
Maximum Humidity 87    
Minimum Humidity 76    
Precipitation  
Precipitation T in 0.02 in 0.41 in (2010)
Month to date precipitation 0.27 0.39  
Year to date precipitation 17.04 20.59  
Snow  
Snow 0.20 in 0.30 in 5.40 in (2008)
Month to date snowfall 3.5 6.7  
Since 1 July snowfall 13.2 15.9  
Snow Depth 3.00 in    
Sea Level Pressure  
Sea Level Pressure 30.20 in    
Wind  
Wind Speed 8 mph (NNW)    
Max Wind Speed 14 mph    
Max Gust Speed 16 mph    
Visibility 8 miles    
Events Snow    
T = Trace of Precipitation, MM = Missing Value Source: NWS Daily Summary

Daily Weather History Graph

Daily Weather History Graph

Search for Another Location

Airport or City:

Trip Planner

Search our weather history database for the weather conditions in past years. The results will help you decide how hot, cold, wet, or windy it might be!

Date:

Astronomy

Dec. 20, 2012 Rise Set
Actual Time 8:15 AM CST 4:37 PM CST
Civil Twilight 7:38 AM CST 5:14 PM CST
Nautical Twilight 6:59 AM CST 5:54 PM CST
Astronomical Twilight 6:21 AM CST 6:31 PM CST
Moon 12:18 PM CST (12/20) 12:39 AM CST (12/20)
Length of Visible Light 9h 35m
Length of Day
8h 22m
First Quarter, 55% of the Moon is Illuminated
Dec 20
First Quarter
Dec 28
Full
Jan 4
Last Quarter
Jan 11
New
Jan 18
First Quarter

Hourly Weather History & Observations

Time (CST) Temp. Windchill Dew Point Humidity Pressure Visibility Wind Dir Wind Speed Gust Speed Precip Events Conditions
12:53 AM 16.0 °F 3.6 °F 10.9 °F 81% 30.13 in 10.0 mi NNW 10.4 mph - N/A   Mostly Cloudy
1:53 AM 14.0 °F 1.2 °F 9.0 °F 80% 30.14 in 10.0 mi NNW 10.4 mph - N/A   Overcast
2:42 AM 8.6 °F -3.7 °F 3.2 °F 79% 30.11 in 10.0 mi NW 8.1 mph - N/A   Scattered Clouds
2:53 AM 8.1 °F -3.2 °F 3.9 °F 83% 30.17 in 10.0 mi NW 6.9 mph - N/A   Partly Cloudy
3:53 AM 3.0 °F -8.0 °F -0.9 °F 84% 30.17 in 10.0 mi WNW 5.8 mph - N/A   Clear
4:53 AM 1.0 °F -12.9 °F -2.9 °F 83% 30.17 in 10.0 mi WNW 8.1 mph - N/A   Clear
5:53 AM 1.0 °F -11.7 °F -2.0 °F 87% 30.18 in 10.0 mi WNW 6.9 mph - N/A   Mostly Cloudy
6:30 AM 3.2 °F -10.3 °F -0.4 °F 85% 30.11 in 10.0 mi NW 8.1 mph - N/A   Scattered Clouds
6:53 AM 3.9 °F -8.2 °F -0.0 °F 84% 30.17 in 10.0 mi NW 6.9 mph - N/A   Partly Cloudy
7:53 AM 3.0 °F -11.5 °F -2.0 °F 80% 30.19 in 10.0 mi WNW 9.2 mph - N/A   Partly Cloudy
8:53 AM 1.9 °F -12.9 °F -2.0 °F 83% 30.19 in 10.0 mi NW 9.2 mph - N/A   Mostly Cloudy
9:53 AM 3.9 °F -12.2 °F -0.0 °F 84% 30.21 in 5.0 mi NW 11.5 mph - 0.00 in Snow Light Snow
10:53 AM 6.1 °F -6.8 °F 1.0 °F 80% 30.21 in 5.0 mi NW 8.1 mph - 0.00 in Snow Light Snow
11:53 AM 7.0 °F -5.7 °F 1.9 °F 80% 30.20 in 7.0 mi NW 8.1 mph - 0.00 in Snow Light Snow
12:53 PM 9.0 °F -4.2 °F 3.0 °F 77% 30.19 in 10.0 mi WNW 9.2 mph - 0.00 in   Overcast
1:53 PM 10.9 °F -0.8 °F 5.0 °F 77% 30.18 in 10.0 mi NNW 8.1 mph - N/A   Overcast
2:53 PM 10.9 °F -1.8 °F 5.0 °F 77% 30.20 in 9.0 mi NNW 9.2 mph - 0.00 in Snow Light Snow
3:53 PM 10.9 °F -0.8 °F 6.1 °F 81% 30.21 in 9.0 mi NNW 8.1 mph - 0.00 in Snow Light Snow
4:53 PM 10.0 °F 1.8 °F 5.0 °F 80% 30.22 in 6.0 mi North 4.6 mph - 0.00 in Snow Light Snow
5:53 PM 10.0 °F -0.9 °F 6.1 °F 84% 30.24 in 6.0 mi NNW 6.9 mph - 0.00 in Snow Light Snow
6:53 PM 10.0 °F -2.9 °F 5.0 °F 80% 30.24 in 9.0 mi North 9.2 mph - 0.00 in Snow Light Snow
7:53 PM 10.0 °F -0.9 °F 5.0 °F 80% 30.25 in 6.0 mi North 6.9 mph - 0.00 in Snow Light Snow
8:25 PM 10.4 °F -0.4 °F 5.0 °F 79% 30.17 in 6.0 mi North 6.9 mph - 0.00 in Snow Light Snow
8:53 PM 10.0 °F -1.9 °F 5.0 °F 80% 30.25 in 7.0 mi North 8.1 mph - 0.00 in Snow Light Snow
9:53 PM 9.0 °F -3.2 °F 3.9 °F 80% 30.27 in 8.0 mi NNW 8.1 mph - 0.00 in Snow Light Snow
10:53 PM 9.0 °F -3.2 °F 3.0 °F 77% 30.27 in 9.0 mi North 8.1 mph - 0.00 in Snow Light Snow
11:53 PM 8.1 °F -0.5 °F 3.9 °F 83% 30.28 in 7.0 mi North 4.6 mph - 0.00 in Snow Light Snow